Location: R�o Medio
(42.4667°N, 3.0167°W)
Time: 02:53:58
(UTC+00:00)

Cosmos 2219 - Pass Details

Date: 27 February 2020
Orbit: 832 x 862 km, 71.1° (Epoch: 05 April)

Event Time Altitude Azimuth Distance (km) Brightness Sun altitude
Rises 20:25:59 0° 334° (NNW) 3,442 6.9 -27.8°
Reaches altitude 10° 20:28:27 10° 333° (NNW) 2,504 6.1 -28.2°
Maximum altitude 20:34:13 78° 249° (WSW) 884 3.2 -29.2°
Enters shadow 20:34:15 78° 244° (WSW) 884 3.2 -29.2°
